Time,TemperatureF,DewpointF,PressureIn,WindDirection,WindDirectionDegrees,WindSpeedMPH,WindSpeedGustMPH,Humidity,HourlyPrecipIn,Conditions,Clouds,dailyrainin,SoftwareType,DateUTC
2013-05-04 00:02:00,45.0,40.0,-100.00,SSW,209,0.0,1.0,83,-99.99,,,-99.99,,2013-05-04 04:02:00,
2013-05-04 00:12:00,45.0,40.0,-100.00,WSW,250,0.0,2.0,83,0.00,,,-99.99,,2013-05-04 04:12:00,
2013-05-04 00:22:00,45.0,40.0,-100.00,West,265,0.0,2.0,82,0.00,,,-99.99,,2013-05-04 04:22:00,
2013-05-04 00:33:00,45.0,43.0,-100.00,WNW,294,1.0,4.0,89,0.00,,,-99.99,,2013-05-04 04:33:00,
2013-05-04 00:42:00,46.0,43.0,-100.00,NW,308,2.0,4.0,90,0.00,,,-99.99,,2013-05-04 04:42:00,
2013-05-04 00:52:00,45.0,42.0,-100.00,West,274,1.0,3.0,88,0.00,,,-99.99,,2013-05-04 04:52:00,
2013-05-04 01:02:00,46.0,42.0,-100.00,WNW,298,2.0,4.0,84,0.00,,,-99.99,,2013-05-04 05:02:00,
2013-05-04 01:12:00,46.0,41.0,-100.00,NW,319,3.0,4.0,82,0.00,,,-99.99,,2013-05-04 05:12:00,
2013-05-04 01:22:00,46.0,41.0,-100.00,NW,313,3.0,4.0,82,0.00,,,-99.99,,2013-05-04 05:22:00,
2013-05-04 01:32:00,44.0,40.0,-100.00,SSW,205,0.0,2.0,86,0.00,,,-99.99,,2013-05-04 05:32:00,
2013-05-04 01:42:00,44.0,40.0,-100.00,SSW,202,0.0,1.0,87,0.00,,,-99.99,,2013-05-04 05:42:00,
2013-05-04 01:52:00,43.0,40.0,-100.00,SSW,213,1.0,2.0,89,-99.99,,,-99.99,,2013-05-04 05:52:00,
2013-05-04 02:01:00,43.0,40.0,-100.00,SSW,199,0.0,1.0,91,0.00,,,-99.99,,2013-05-04 06:01:00,
2013-05-04 02:11:00,43.0,40.0,-100.00,SSW,199,0.0,1.0,91,0.00,,,-99.99,,2013-05-04 06:11:00,
2013-05-04 02:21:00,42.0,40.0,-100.00,SE,141,0.0,0.0,92,0.00,,,-99.99,,2013-05-04 06:21:00,
2013-05-04 02:32:00,42.0,40.0,-100.00,ESE,114,0.0,1.0,93,0.00,,,-99.99,,2013-05-04 06:32:00,
2013-05-04 02:42:00,41.0,40.0,-100.00,ESE,114,1.0,3.0,96,0.00,,,-99.99,,2013-05-04 06:42:00,
2013-05-04 02:52:00,41.0,41.0,-100.00,ESE,123,1.0,3.0,100,0.00,,,-99.99,,2013-05-04 06:52:00,
2013-05-04 03:01:00,41.0,41.0,-100.00,ESE,114,1.0,3.0,100,0.00,,,-99.99,,2013-05-04 07:01:00,
2013-05-04 03:11:00,41.0,41.0,-100.00,SE,124,1.0,2.0,100,0.00,,,-99.99,,2013-05-04 07:11:00,
2013-05-04 03:21:00,41.0,41.0,-100.00,SE,140,1.0,1.0,100,0.00,,,-99.99,,2013-05-04 07:21:00,
2013-05-04 03:32:00,-999.0,-99.9,-100.00,SE,131,1.0,2.0,-999,-99.99,,,-99.99,,2013-05-04 07:32:00,
2013-05-04 03:42:00,-999.0,-99.9,-100.00,SE,138,1.0,2.0,-999,-99.99,,,-99.99,,2013-05-04 07:42:00,
2013-05-04 03:52:00,41.0,41.0,-100.00,SE,128,1.0,2.0,100,0.00,,,-99.99,,2013-05-04 07:52:00,
2013-05-04 04:02:00,40.0,40.0,-100.00,ESE,110,1.0,3.0,100,0.00,,,-99.99,,2013-05-04 08:02:00,
2013-05-04 04:21:00,41.0,41.0,-100.00,SE,134,0.0,1.0,100,0.00,,,-99.99,,2013-05-04 08:21:00,
2013-05-04 04:32:00,41.0,41.0,-100.00,SSW,196,0.0,0.0,100,0.00,,,-99.99,,2013-05-04 08:32:00,
2013-05-04 04:42:00,41.0,41.0,-100.00,South,179,0.0,1.0,100,0.00,,,-99.99,,2013-05-04 08:42:00,
2013-05-04 04:52:00,41.0,41.0,-100.00,South,172,0.0,0.0,100,0.00,,,-99.99,,2013-05-04 08:52:00,
2013-05-04 05:02:00,41.0,41.0,-100.00,NNW,335,0.0,1.0,100,0.00,,,-99.99,,2013-05-04 09:02:00,
2013-05-04 05:11:00,41.0,41.0,-100.00,NNW,332,0.0,2.0,100,0.00,,,-99.99,,2013-05-04 09:11:00,
2013-05-04 05:22:00,41.0,41.0,-100.00,NNW,337,1.0,3.0,100,0.00,,,-99.99,,2013-05-04 09:22:00,
2013-05-04 05:33:00,42.0,-99.9,-100.00,NW,320,2.0,4.0,-999,0.00,,,-99.99,,2013-05-04 09:33:00,
2013-05-04 05:43:00,42.0,-99.9,-100.00,NNW,329,3.0,4.0,-999,0.00,,,-99.99,,2013-05-04 09:43:00,
2013-05-04 05:53:00,42.0,-99.9,-100.00,NNW,335,3.0,4.0,-999,0.00,,,-99.99,,2013-05-04 09:53:00,
2013-05-04 06:03:00,41.0,-99.9,-100.00,NNW,333,4.0,6.0,-999,0.00,,,-99.99,,2013-05-04 10:03:00,
2013-05-04 06:12:00,41.0,-99.9,-100.00,NNW,335,3.0,5.0,-999,0.00,,,-99.99,,2013-05-04 10:12:00,
2013-05-04 06:23:00,41.0,-99.9,-100.00,NNW,330,4.0,6.0,-999,0.00,,,-99.99,,2013-05-04 10:23:00,
2013-05-04 06:33:00,41.0,-99.9,-100.00,NNW,333,4.0,6.0,-999,0.00,,,-99.99,,2013-05-04 10:33:00,
2013-05-04 06:42:00,41.0,-99.9,-100.00,NNW,332,3.0,4.0,-999,0.00,,,-99.99,,2013-05-04 10:42:00,
2013-05-04 06:52:00,41.0,41.0,-100.00,NW,323,3.0,4.0,100,0.00,,,-99.99,,2013-05-04 10:52:00,
2013-05-04 07:02:00,42.0,42.0,-100.00,NW,326,4.0,4.0,100,0.00,,,-99.99,,2013-05-04 11:02:00,
2013-05-04 07:11:00,42.0,42.0,-100.00,NW,320,2.0,5.0,99,0.00,,,-99.99,,2013-05-04 11:11:00,
2013-05-04 07:21:00,43.0,43.0,-100.00,NW,319,1.0,3.0,97,0.00,,,-99.99,,2013-05-04 11:21:00,
2013-05-04 07:32:00,44.0,42.0,-100.00,NW,325,2.0,4.0,93,0.00,,,-99.99,,2013-05-04 11:32:00,
2013-05-04 08:04:00,-999.0,-99.9,-100.00,NNW,330,3.0,6.0,-999,-99.99,,,-99.99,,2013-05-04 12:04:00,
2013-05-04 08:10:00,-999.0,-99.9,-100.00,NNW,332,4.0,8.0,-999,-99.99,,,-99.99,,2013-05-04 12:10:00,
2013-05-04 08:29:00,49.0,43.0,-100.00,North,354,3.0,8.0,80,0.00,,,-99.99,,2013-05-04 12:29:00,
2013-05-04 08:36:00,51.0,42.0,-100.00,NE,40,2.0,6.0,72,0.00,,,-99.99,,2013-05-04 12:36:00,
2013-05-04 08:42:00,51.0,42.0,-100.00,NE,54,3.0,7.0,72,0.00,,,-99.99,,2013-05-04 12:42:00,
2013-05-04 08:51:00,52.0,43.0,-100.00,NE,42,2.0,10.0,72,0.00,,,-99.99,,2013-05-04 12:51:00,
2013-05-04 09:01:00,51.0,42.0,-100.00,North,4,2.0,10.0,71,0.00,,,-99.99,,2013-05-04 13:01:00,
2013-05-04 09:11:00,52.0,43.0,-100.00,NE,56,4.0,8.0,72,0.00,,,-99.99,,2013-05-04 13:11:00,
2013-05-04 09:21:00,52.0,42.0,-100.00,NE,54,4.0,9.0,71,0.00,,,-99.99,,2013-05-04 13:21:00,
2013-05-04 09:32:00,51.0,43.0,-100.00,NE,42,3.0,10.0,72,0.00,,,-99.99,,2013-05-04 13:32:00,
2013-05-04 09:42:00,51.0,43.0,-100.00,ENE,71,6.0,11.0,74,0.00,,,-99.99,,2013-05-04 13:42:00,
2013-05-04 09:52:00,51.0,42.0,-100.00,ENE,59,4.0,8.0,70,0.00,,,-99.99,,2013-05-04 13:52:00,
2013-05-04 10:02:00,51.0,42.0,-100.00,NE,41,3.0,8.0,71,0.00,,,-99.99,,2013-05-04 14:02:00,
2013-05-04 10:11:00,51.0,42.0,-100.00,NNE,25,4.0,7.0,69,0.00,,,-99.99,,2013-05-04 14:11:00,
2013-05-04 10:21:00,54.0,42.0,-100.00,NE,47,4.0,9.0,64,0.00,,,-99.99,,2013-05-04 14:21:00,
2013-05-04 10:32:00,53.0,40.0,-100.00,NE,52,3.0,8.0,61,0.00,,,-99.99,,2013-05-04 14:32:00,
2013-05-04 10:42:00,-999.0,-99.9,-100.00,ENE,61,4.0,7.0,-999,-99.99,,,-99.99,,2013-05-04 14:42:00,
2013-05-04 10:51:00,53.0,41.0,-100.00,East,89,6.0,11.0,62,0.00,,,-99.99,,2013-05-04 14:51:00,
2013-05-04 11:02:00,55.0,40.0,-100.00,East,97,6.0,12.0,57,0.00,,,-99.99,,2013-05-04 15:02:00,
2013-05-04 11:12:00,54.0,40.0,-100.00,ESE,104,6.0,11.0,57,0.00,,,-99.99,,2013-05-04 15:12:00,
2013-05-04 11:22:00,55.0,39.0,-100.00,East,90,6.0,12.0,55,0.00,,,-99.99,,2013-05-04 15:22:00,
2013-05-04 11:33:00,55.0,39.0,-100.00,East,96,6.0,10.0,55,0.00,,,-99.99,,2013-05-04 15:33:00,
2013-05-04 11:43:00,-999.0,-99.9,-100.00,East,99,5.0,10.0,-999,-99.99,,,-99.99,,2013-05-04 15:43:00,
2013-05-04 11:52:00,54.0,38.0,-100.00,East,93,6.0,11.0,53,0.00,,,-99.99,,2013-05-04 15:52:00,
2013-05-04 12:03:00,55.0,38.0,-100.00,East,90,6.0,11.0,53,0.00,,,-99.99,,2013-05-04 16:03:00,
2013-05-04 12:12:00,55.0,39.0,-100.00,ESE,117,6.0,11.0,55,0.00,,,-99.99,,2013-05-04 16:12:00,
2013-05-04 12:22:00,55.0,39.0,-100.00,ESE,102,4.0,12.0,56,0.00,,,-99.99,,2013-05-04 16:22:00,
2013-05-04 12:33:00,55.0,39.0,-100.00,East,100,6.0,12.0,54,0.00,,,-99.99,,2013-05-04 16:33:00,
2013-05-04 12:42:00,56.0,38.0,-100.00,ESE,103,6.0,11.0,52,0.00,,,-99.99,,2013-05-04 16:42:00,
2013-05-04 12:52:00,56.0,38.0,-100.00,East,90,6.0,10.0,52,0.00,,,-99.99,,2013-05-04 16:52:00,
2013-05-04 13:02:00,55.0,40.0,-100.00,East,86,6.0,11.0,56,0.00,,,-99.99,,2013-05-04 17:02:00,
2013-05-04 13:12:00,56.0,40.0,-100.00,ESE,102,6.0,12.0,53,0.00,,,-99.99,,2013-05-04 17:12:00,
2013-05-04 13:22:00,56.0,38.0,-100.00,ESE,107,6.0,11.0,49,0.00,,,-99.99,,2013-05-04 17:22:00,
2013-05-04 13:32:00,57.0,38.0,-100.00,ESE,117,7.0,14.0,48,0.00,,,-99.99,,2013-05-04 17:32:00,
2013-05-04 13:42:00,56.0,39.0,-100.00,ESE,103,6.0,12.0,52,-99.99,,,-99.99,,2013-05-04 17:42:00,
2013-05-04 13:52:00,56.0,39.0,-100.00,ESE,113,7.0,14.0,52,0.00,,,-99.99,,2013-05-04 17:52:00,
2013-05-04 14:01:00,56.0,40.0,-100.00,ESE,116,6.0,10.0,55,0.00,,,-99.99,,2013-05-04 18:01:00,
2013-05-04 14:12:00,55.0,40.0,-100.00,ESE,113,6.0,12.0,56,0.00,,,-99.99,,2013-05-04 18:12:00,
2013-05-04 14:22:00,-999.0,-99.9,-100.00,ESE,109,6.0,11.0,-999,-99.99,,,-99.99,,2013-05-04 18:22:00,
2013-05-04 14:32:00,54.0,39.0,-100.00,ESE,119,6.0,11.0,56,0.00,,,-99.99,,2013-05-04 18:32:00,
2013-05-04 14:42:00,55.0,39.0,-100.00,SE,124,7.0,14.0,54,0.00,,,-99.99,,2013-05-04 18:42:00,
2013-05-04 14:52:00,54.0,40.0,-100.00,ESE,110,6.0,11.0,57,0.00,,,-99.99,,2013-05-04 18:52:00,
2013-05-04 15:01:00,54.0,38.0,-100.00,ESE,112,7.0,12.0,54,0.00,,,-99.99,,2013-05-04 19:01:00,
2013-05-04 15:11:00,54.0,38.0,-100.00,ESE,113,6.0,11.0,54,0.00,,,-99.99,,2013-05-04 19:11:00,
2013-05-04 15:21:00,54.0,37.0,-100.00,ESE,110,6.0,12.0,52,0.00,,,-99.99,,2013-05-04 19:21:00,
2013-05-04 15:32:00,53.0,38.0,-100.00,ESE,120,7.0,12.0,57,0.00,,,-99.99,,2013-05-04 19:32:00,
2013-05-04 15:42:00,54.0,38.0,-100.00,East,99,6.0,11.0,56,0.00,,,-99.99,,2013-05-04 19:42:00,
2013-05-04 15:52:00,-999.0,-99.9,-100.00,SE,128,7.0,12.0,-999,-99.99,,,-99.99,,2013-05-04 19:52:00,
2013-05-04 16:02:00,-999.0,-99.9,-100.00,ESE,103,6.0,13.0,-999,-99.99,,,-99.99,,2013-05-04 20:02:00,
2013-05-04 16:11:00,53.0,38.0,-100.00,East,89,6.0,13.0,55,0.00,,,-99.99,,2013-05-04 20:11:00,
2013-05-04 16:22:00,53.0,36.0,-100.00,ESE,109,6.0,12.0,52,0.00,,,-99.99,,2013-05-04 20:22:00,
2013-05-04 16:32:00,53.0,36.0,-100.00,ESE,110,6.0,10.0,53,0.00,,,-99.99,,2013-05-04 20:32:00,
2013-05-04 16:42:00,52.0,37.0,-100.00,ESE,113,6.0,14.0,56,0.00,,,-99.99,,2013-05-04 20:42:00,
2013-05-04 16:52:00,52.0,36.0,-100.00,ESE,104,6.0,11.0,55,0.00,,,-99.99,,2013-05-04 20:52:00,
2013-05-04 17:02:00,52.0,36.0,-100.00,ESE,106,6.0,11.0,54,0.00,,,-99.99,,2013-05-04 21:02:00,
2013-05-04 17:12:00,51.0,37.0,-100.00,East,93,6.0,13.0,57,0.00,,,-99.99,,2013-05-04 21:12:00,
2013-05-04 17:22:00,51.0,38.0,-100.00,East,100,6.0,13.0,60,0.00,,,-99.99,,2013-05-04 21:22:00,
2013-05-04 17:33:00,52.0,38.0,-100.00,ESE,102,5.0,10.0,59,0.00,,,-99.99,,2013-05-04 21:33:00,
2013-05-04 17:43:00,51.0,37.0,-100.00,ESE,120,7.0,13.0,59,0.00,,,-99.99,,2013-05-04 21:43:00,
2013-05-04 17:53:00,-999.0,-99.9,-100.00,ESE,112,6.0,13.0,-999,-99.99,,,-99.99,,2013-05-04 21:53:00,
2013-05-04 18:03:00,50.0,37.0,-100.00,ESE,103,6.0,13.0,60,0.00,,,-99.99,,2013-05-04 22:03:00,
2013-05-04 18:12:00,50.0,37.0,-100.00,ESE,109,6.0,12.0,61,0.00,,,-99.99,,2013-05-04 22:12:00,
2013-05-04 18:22:00,49.0,38.0,-100.00,ESE,102,5.0,11.0,63,0.00,,,-99.99,,2013-05-04 22:22:00,
2013-05-04 18:33:00,49.0,37.0,-100.00,ESE,110,4.0,10.0,61,0.00,,,-99.99,,2013-05-04 22:33:00,
2013-05-04 18:42:00,49.0,36.0,-100.00,ESE,110,5.0,9.0,61,-99.99,,,-99.99,,2013-05-04 22:42:00,
2013-05-04 18:52:00,49.0,36.0,-100.00,ESE,104,5.0,9.0,59,0.00,,,-99.99,,2013-05-04 22:52:00,
2013-05-04 19:02:00,49.0,37.0,-100.00,East,86,4.0,9.0,63,0.00,,,-99.99,,2013-05-04 23:02:00,
2013-05-04 19:12:00,48.0,37.0,-100.00,East,83,4.0,8.0,66,0.00,,,-99.99,,2013-05-04 23:12:00,
2013-05-04 19:22:00,48.0,38.0,-100.00,East,89,4.0,7.0,69,0.00,,,-99.99,,2013-05-04 23:22:00,
2013-05-04 19:32:00,47.0,38.0,-100.00,East,96,3.0,7.0,70,0.00,,,-99.99,,2013-05-04 23:32:00,
2013-05-04 19:43:00,-999.0,-99.9,-100.00,ESE,110,4.0,8.0,-999,-99.99,,,-99.99,,2013-05-04 23:43:00,
2013-05-04 19:52:00,46.0,37.0,-100.00,ESE,113,4.0,8.0,71,0.00,,,-99.99,,2013-05-04 23:52:00,
2013-05-04 20:02:00,45.0,37.0,-100.00,ESE,113,4.0,7.0,73,0.00,,,-99.99,,2013-05-05 00:02:00,
2013-05-04 20:11:00,45.0,38.0,-100.00,ESE,119,4.0,6.0,75,0.00,,,-99.99,,2013-05-05 00:11:00,
2013-05-04 20:21:00,45.0,38.0,-100.00,ESE,123,4.0,7.0,75,0.00,,,-99.99,,2013-05-05 00:21:00,
2013-05-04 20:32:00,45.0,38.0,-100.00,ESE,119,3.0,6.0,77,-99.99,,,-99.99,,2013-05-05 00:32:00,
2013-05-04 20:42:00,45.0,38.0,-100.00,ESE,119,3.0,6.0,77,0.00,,,-99.99,,2013-05-05 00:42:00,
2013-05-04 20:51:00,45.0,38.0,-100.00,ESE,119,3.0,6.0,77,0.00,,,-99.99,,2013-05-05 00:51:00,
2013-05-04 21:01:00,45.0,38.0,-100.00,ESE,119,3.0,6.0,77,0.00,,,-99.99,,2013-05-05 01:01:00,
2013-05-04 21:11:00,44.0,38.0,-100.00,SE,138,2.0,4.0,80,0.00,,,-99.99,,2013-05-05 01:11:00,
2013-05-04 21:21:00,44.0,38.0,-100.00,SSE,150,1.0,4.0,81,0.00,,,-99.99,,2013-05-05 01:21:00,
2013-05-04 21:32:00,44.0,39.0,-100.00,SSE,150,1.0,2.0,82,0.00,,,-99.99,,2013-05-05 01:32:00,
2013-05-04 21:42:00,44.0,39.0,-100.00,SSE,167,1.0,2.0,82,0.00,,,-99.99,,2013-05-05 01:42:00,
2013-05-04 21:52:00,43.0,38.0,-100.00,SSE,157,1.0,2.0,84,0.00,,,-99.99,,2013-05-05 01:52:00,
2013-05-04 22:02:00,42.0,38.0,-100.00,ESE,123,0.0,2.0,84,0.00,,,-99.99,,2013-05-05 02:02:00,
2013-05-04 22:11:00,41.0,38.0,-100.00,East,88,0.0,1.0,87,0.00,,,-99.99,,2013-05-05 02:11:00,
2013-05-04 22:22:00,-999.0,-99.9,-100.00,SE,136,0.0,1.0,-999,-99.99,,,-99.99,,2013-05-05 02:22:00,
2013-05-04 22:32:00,42.0,38.0,-100.00,SSE,155,0.0,1.0,88,0.00,,,-99.99,,2013-05-05 02:32:00,
2013-05-04 22:42:00,41.0,38.0,-100.00,SW,216,0.0,1.0,90,0.00,,,-99.99,,2013-05-05 02:42:00,
2013-05-04 22:52:00,42.0,40.0,-100.00,WNW,291,1.0,3.0,93,0.00,,,-99.99,,2013-05-05 02:52:00,
2013-05-04 23:01:00,42.0,40.0,-100.00,NNW,342,1.0,2.0,94,0.00,,,-99.99,,2013-05-05 03:01:00,
2013-05-04 23:11:00,41.0,41.0,-100.00,North,353,1.0,3.0,100,0.00,,,-99.99,,2013-05-05 03:11:00,
2013-05-04 23:22:00,42.0,42.0,-100.00,NNW,347,1.0,4.0,100,0.00,,,-99.99,,2013-05-05 03:22:00,
2013-05-04 23:33:00,42.0,42.0,-100.00,NW,326,3.0,4.0,100,0.00,,,-99.99,,2013-05-05 03:33:00,
2013-05-04 23:42:00,42.0,42.0,-100.00,NNW,329,2.0,4.0,100,0.00,,,-99.99,,2013-05-05 03:42:00,
2013-05-04 23:53:00,-999.0,-99.9,-100.00,NNW,335,1.0,3.0,-999,-99.99,,,-99.99,,2013-05-05 03:53:00,